Overview Statistics Trail Chart Weather Telemetry Raw packets
 

This is the latest recevied weather packets stored in our database for station/object KB0VMZ. If no packets are shown the sender has not sent any weather packets the latest 10 day(s).

<< 5 6 7 8 9 10 11 >>
Time Temp. Humidity Pressure Rain* Wind** Luminosity Snow
1788507033 23.89° C 100% 0 hPa 0 mm 0.89 m/s, 202° - -
1788506434 23.89° C 100% 0 hPa 0 mm 1.79 m/s, 180° - -
1788505834 24.44° C 100% 0 hPa 0 mm 0.89 m/s, 135° - -
1788505234 24.44° C 100% 0 hPa 0 mm 0.45 m/s, 202° - -
1788504634 24.44° C 100% 0 hPa 0 mm 0.89 m/s, 180° - -
1788504034 25° C 100% 0 hPa 0 mm 0.89 m/s, 112° - -
1788503438 25° C 100% 0 hPa 0 mm 0.45 m/s, 45° - -
1788502834 25° C 100% 0 hPa 0 mm 2.24 m/s, 225° - -
1788502234 25° C 100% 0 hPa 0 mm 2.24 m/s, 202° - -
1788501633 25° C 100% 0 hPa 0 mm 0.89 m/s, 225° - -
1788501034 25° C 100% 0 hPa 0 mm 2.68 m/s, 225° - -
1788500434 25.56° C 100% 0 hPa 0 mm 1.34 m/s, 225° - -
1788499834 25.56° C 100% 0 hPa 0 mm 0.89 m/s, 180° - -
1788499234 25.56° C 100% 0 hPa 0 mm 2.24 m/s, 225° - -
1788498634 25.56° C 100% 0 hPa 0 mm 4.92 m/s, 202° - -
1788498034 25.56° C 100% 0 hPa 0 mm 3.13 m/s, 225° - -
1788497434 26.11° C 100% 0 hPa 0 mm 0.45 m/s, 180° - -
1788496834 26.11° C 100% 0 hPa 0 mm 4.02 m/s, 180° - -
1788496234 26.11° C 100% 0 hPa 0 mm 3.13 m/s, 225° - -
1788495634 26.11° C 100% 0 hPa 0 mm 5.81 m/s, 225° - -
1788495034 26.11° C 100% 0 hPa 0 mm 2.68 m/s, 225° - -
1788494434 26.11° C 100% 0 hPa 0 mm 4.47 m/s, 225° - -
1788493834 26.67° C 100% 0 hPa 0 mm 1.79 m/s, 135° - -
1788493234 26.67° C 100% 0 hPa 0 mm 2.68 m/s, 180° - -
1788492634 26.67° C 100% 0 hPa 0 mm 3.58 m/s, 180° - -

* Rain latest hour (hover to see other rain measurements)
** Current wind speed in m/s (hover to see current wind gust speed)